owner,sensor,date,latitude,longitude,vertical_datum,mass_concentration_of_oxygen_in_sea_water,qcFlag 
DISL,ioos:station:DISL:CATA:1,2008-12-01T00:00:00Z,30.3085,-88.1395,2.287,7.66,1111122 
DISL,ioos:station:DISL:CATA:1,2008-12-01T00:30:00Z,30.3085,-88.1395,2.323,7.71,1111122 
DISL,ioos:station:DISL:CATA:1,2008-12-01T01:00:00Z,30.3085,-88.1395,2.354,7.74,1111122 
DISL,ioos:station:DISL:CATA:1,2008-12-01T01:30:00Z,30.3085,-88.1395,2.358,7.77,1111122 
DISL,ioos:station:DISL:CATA:1,2008-12-01T02:00:00Z,30.3085,-88.1395,2.382,7.77,1111122 
DISL,ioos:station:DISL:CATA:1,2008-12-01T02:30:00Z,30.3085,-88.1395,2.395,7.75,1111122 
DISL,ioos:station:DISL:CATA:1,2008-12-01T03:00:00Z,30.3085,-88.1395,2.405,7.79,1111122 
DISL,ioos:station:DISL:CATA:1,2008-12-01T03:30:00Z,30.3085,-88.1395,2.434,7.81,1111122 
DISL,ioos:station:DISL:CATA:1,2008-12-01T04:00:00Z,30.3085,-88.1395,2.431,7.78,1111122 
DISL,ioos:station:DISL:CATA:1,2008-12-01T04:30:00Z,30.3085,-88.1395,2.432,7.79,1111122 
DISL,ioos:station:DISL:CATA:1,2008-12-01T05:00:00Z,30.3085,-88.1395,2.407,7.8,1111122 
DISL,ioos:station:DISL:CATA:1,2008-12-01T05:30:00Z,30.3085,-88.1395,2.377,7.8,1111122 
DISL,ioos:station:DISL:CATA:1,2008-12-01T06:00:00Z,30.3085,-88.1395,2.404,7.83,1111122 
DISL,ioos:station:DISL:CATA:1,2008-12-01T06:30:00Z,30.3085,-88.1395,2.413,7.84,1111122 
DISL,ioos:station:DISL:CATA:1,2008-12-01T07:00:00Z,30.3085,-88.1395,2.408,7.88,1111122 
DISL,ioos:station:DISL:CATA:1,2008-12-01T07:30:00Z,30.3085,-88.1395,2.388,7.88,1111122 
DISL,ioos:station:DISL:CATA:1,2008-12-01T08:00:00Z,30.3085,-88.1395,2.377,7.95,1111122 
DISL,ioos:station:DISL:CATA:1,2008-12-01T08:30:00Z,30.3085,-88.1395,2.37,7.96,1111122 
DISL,ioos:station:DISL:CATA:1,2008-12-01T09:00:00Z,30.3085,-88.1395,2.363,8.02,1111122 
DISL,ioos:station:DISL:CATA:1,2008-12-01T09:30:00Z,30.3085,-88.1395,2.336,7.97,1111122 
DISL,ioos:station:DISL:CATA:1,2008-12-01T10:00:00Z,30.3085,-88.1395,2.299,8.01,1111122 
DISL,ioos:station:DISL:CATA:1,2008-12-01T10:30:00Z,30.3085,-88.1395,2.232,8.04,1111122 
DISL,ioos:station:DISL:CATA:1,2008-12-01T11:00:00Z,30.3085,-88.1395,2.229,8.07,1111122 
DISL,ioos:station:DISL:CATA:1,2008-12-01T11:30:00Z,30.3085,-88.1395,2.219,8.13,1111122 
DISL,ioos:station:DISL:CATA:1,2008-12-01T12:00:00Z,30.3085,-88.1395,2.206,8.03,1111122 
DISL,ioos:station:DISL:CATA:1,2008-12-01T12:30:00Z,30.3085,-88.1395,2.152,8.06,1111122 
DISL,ioos:station:DISL:CATA:1,2008-12-01T13:00:00Z,30.3085,-88.1395,2.131,7.98,1111122 
DISL,ioos:station:DISL:CATA:1,2008-12-01T13:30:00Z,30.3085,-88.1395,2.153,8.03,1111122 
DISL,ioos:station:DISL:CATA:1,2008-12-01T14:00:00Z,30.3085,-88.1395,2.125,8.11,1111122 
DISL,ioos:station:DISL:CATA:1,2008-12-01T14:30:00Z,30.3085,-88.1395,2.081,8.19,1111122 
DISL,ioos:station:DISL:CATA:1,2008-12-01T15:00:00Z,30.3085,-88.1395,2.041,8.27,1111122 
DISL,ioos:station:DISL:CATA:1,2008-12-01T15:30:00Z,30.3085,-88.1395,2.021,8.21,1111122 
DISL,ioos:station:DISL:CATA:1,2008-12-01T16:00:00Z,30.3085,-88.1395,2.013,8.2,1111122 
DISL,ioos:station:DISL:CATA:1,2008-12-01T16:30:00Z,30.3085,-88.1395,2.019,8.26,1111122 
DISL,ioos:station:DISL:CATA:1,2008-12-01T17:00:00Z,30.3085,-88.1395,2.008,8.3,1111122 
DISL,ioos:station:DISL:CATA:1,2008-12-01T17:30:00Z,30.3085,-88.1395,1.995,8.29,1111122 
DISL,ioos:station:DISL:CATA:1,2008-12-01T18:00:00Z,30.3085,-88.1395,1.988,8.32,1111122 
DISL,ioos:station:DISL:CATA:1,2008-12-01T18:30:00Z,30.3085,-88.1395,1.994,8.32,1111122 
DISL,ioos:station:DISL:CATA:1,2008-12-01T19:00:00Z,30.3085,-88.1395,1.993,8.33,1111122 
DISL,ioos:station:DISL:CATA:1,2008-12-01T19:30:00Z,30.3085,-88.1395,1.991,8.3,1111122 
DISL,ioos:station:DISL:CATA:1,2008-12-01T20:00:00Z,30.3085,-88.1395,1.999,8.32,1111122 
DISL,ioos:station:DISL:CATA:1,2008-12-01T20:30:00Z,30.3085,-88.1395,2.024,8.36,1111122 
DISL,ioos:station:DISL:CATA:1,2008-12-01T21:00:00Z,30.3085,-88.1395,2.047,8.33,1111122 
DISL,ioos:station:DISL:CATA:1,2008-12-01T21:30:00Z,30.3085,-88.1395,2.074,8.33,1111122 
DISL,ioos:station:DISL:CATA:1,2008-12-01T22:00:00Z,30.3085,-88.1395,2.111,8.34,1111122 
DISL,ioos:station:DISL:CATA:1,2008-12-01T22:30:00Z,30.3085,-88.1395,2.137,8.34,1111122 
DISL,ioos:station:DISL:CATA:1,2008-12-01T23:00:00Z,30.3085,-88.1395,2.16,8.41,1111122 
DISL,ioos:station:DISL:CATA:1,2008-12-01T23:30:00Z,30.3085,-88.1395,2.2,8.4,1111122 
DISL,ioos:station:DISL:CATA:1,2008-12-02T00:00:00Z,30.3085,-88.1395,2.21,8.36,1111122 
DISL,ioos:station:DISL:CATA:1,2008-12-02T00:30:00Z,30.3085,-88.1395,2.276,8.38,1111122 
DISL,ioos:station:DISL:CATA:1,2008-12-02T01:00:00Z,30.3085,-88.1395,2.253,8.38,1111122 
DISL,ioos:station:DISL:CATA:1,2008-12-02T01:30:00Z,30.3085,-88.1395,2.257,8.3,1111122 
DISL,ioos:station:DISL:CATA:1,2008-12-02T02:00:00Z,30.3085,-88.1395,2.285,8.3,1111122 
DISL,ioos:station:DISL:CATA:1,2008-12-02T02:30:00Z,30.3085,-88.1395,2.272,8.3,1111122 
DISL,ioos:station:DISL:CATA:1,2008-12-02T03:00:00Z,30.3085,-88.1395,2.257,8.33,1111122 
DISL,ioos:station:DISL:CATA:1,2008-12-02T03:30:00Z,30.3085,-88.1395,2.298,8.22,1111122 
DISL,ioos:station:DISL:CATA:1,2008-12-02T04:00:00Z,30.3085,-88.1395,2.299,8.28,1111122 
DISL,ioos:station:DISL:CATA:1,2008-12-02T04:30:00Z,30.3085,-88.1395,2.295,8.27,1111122 
DISL,ioos:station:DISL:CATA:1,2008-12-02T05:00:00Z,30.3085,-88.1395,2.279,8.27,1111122 
DISL,ioos:station:DISL:CATA:1,2008-12-02T05:30:00Z,30.3085,-88.1395,2.302,8.27,1111122 
DISL,ioos:station:DISL:CATA:1,2008-12-02T06:00:00Z,30.3085,-88.1395,2.307,8.18,1111122 
DISL,ioos:station:DISL:CATA:1,2008-12-02T06:30:00Z,30.3085,-88.1395,2.307,8.17,1111122 
DISL,ioos:station:DISL:CATA:1,2008-12-02T07:00:00Z,30.3085,-88.1395,2.32,8.19,1111122 
DISL,ioos:station:DISL:CATA:1,2008-12-02T07:30:00Z,30.3085,-88.1395,2.326,8.16,1111122 
DISL,ioos:station:DISL:CATA:1,2008-12-02T08:00:00Z,30.3085,-88.1395,2.281,8.2,1111122 
DISL,ioos:station:DISL:CATA:1,2008-12-02T08:30:00Z,30.3085,-88.1395,2.256,8.17,1111122 
DISL,ioos:station:DISL:CATA:1,2008-12-02T09:00:00Z,30.3085,-88.1395,2.266,8.16,1111122 
DISL,ioos:station:DISL:CATA:1,2008-12-02T09:30:00Z,30.3085,-88.1395,2.268,8.21,1111122 
DISL,ioos:station:DISL:CATA:1,2008-12-02T10:00:00Z,30.3085,-88.1395,2.229,8.06,1111122 
DISL,ioos:station:DISL:CATA:1,2008-12-02T10:30:00Z,30.3085,-88.1395,2.183,8.1,1111122 
DISL,ioos:station:DISL:CATA:1,2008-12-02T11:00:00Z,30.3085,-88.1395,2.172,8.02,1111122 
DISL,ioos:station:DISL:CATA:1,2008-12-02T11:30:00Z,30.3085,-88.1395,2.141,8.3,1111122 
DISL,ioos:station:DISL:CATA:1,2008-12-02T12:00:00Z,30.3085,-88.1395,2.112,8.24,1111122 
DISL,ioos:station:DISL:CATA:1,2008-12-02T12:30:00Z,30.3085,-88.1395,2.093,8.23,1111122 
DISL,ioos:station:DISL:CATA:1,2008-12-02T13:00:00Z,30.3085,-88.1395,2.075,8.2,1111122 
DISL,ioos:station:DISL:CATA:1,2008-12-02T13:30:00Z,30.3085,-88.1395,2.051,8.22,1111122 
DISL,ioos:station:DISL:CATA:1,2008-12-02T14:00:00Z,30.3085,-88.1395,2.022,8.41,1111122 
DISL,ioos:station:DISL:CATA:1,2008-12-02T14:30:00Z,30.3085,-88.1395,2.004,8.58,1111122 
DISL,ioos:station:DISL:CATA:1,2008-12-02T15:00:00Z,30.3085,-88.1395,1.982,8.65,1111122 
DISL,ioos:station:DISL:CATA:1,2008-12-02T15:30:00Z,30.3085,-88.1395,1.969,8.74,1111122 
DISL,ioos:station:DISL:CATA:1,2008-12-02T16:00:00Z,30.3085,-88.1395,1.96,8.86,1111122 
DISL,ioos:station:DISL:CATA:1,2008-12-02T16:30:00Z,30.3085,-88.1395,1.955,8.95,1111122 
DISL,ioos:station:DISL:CATA:1,2008-12-02T17:00:00Z,30.3085,-88.1395,1.952,9.05,1111122 
DISL,ioos:station:DISL:CATA:1,2008-12-02T17:30:00Z,30.3085,-88.1395,1.949,9.11,1111122 
DISL,ioos:station:DISL:CATA:1,2008-12-02T18:00:00Z,30.3085,-88.1395,1.948,9.19,1111122 
DISL,ioos:station:DISL:CATA:1,2008-12-02T18:30:00Z,30.3085,-88.1395,1.967,9.27,1111122 
DISL,ioos:station:DISL:CATA:1,2008-12-02T19:00:00Z,30.3085,-88.1395,1.983,9.25,1111122 
DISL,ioos:station:DISL:CATA:1,2008-12-02T19:30:00Z,30.3085,-88.1395,1.986,9.27,1111122 
DISL,ioos:station:DISL:CATA:1,2008-12-02T20:00:00Z,30.3085,-88.1395,1.986,9.42,1111122 
DISL,ioos:station:DISL:CATA:1,2008-12-02T20:30:00Z,30.3085,-88.1395,2.001,9.44,1111122 
DISL,ioos:station:DISL:CATA:1,2008-12-02T21:00:00Z,30.3085,-88.1395,2.019,9.44,1111122 
DISL,ioos:station:DISL:CATA:1,2008-12-02T21:30:00Z,30.3085,-88.1395,2.027,9.38,1111122 
DISL,ioos:station:DISL:CATA:1,2008-12-02T22:00:00Z,30.3085,-88.1395,2.038,9.43,1111122 
DISL,ioos:station:DISL:CATA:1,2008-12-02T22:30:00Z,30.3085,-88.1395,2.063,9.4,1111122 
DISL,ioos:station:DISL:CATA:1,2008-12-02T23:00:00Z,30.3085,-88.1395,2.092,9.31,1111122 
DISL,ioos:station:DISL:CATA:1,2008-12-02T23:30:00Z,30.3085,-88.1395,2.119,9.16,1111122 
DISL,ioos:station:DISL:CATA:1,2008-12-03T00:00:00Z,30.3085,-88.1395,2.141,9.13,1111122 
DISL,ioos:station:DISL:CATA:1,2008-12-03T00:30:00Z,30.3085,-88.1395,2.175,9.08,1111122 
DISL,ioos:station:DISL:CATA:1,2008-12-03T01:00:00Z,30.3085,-88.1395,2.205,9.01,1111122 
DISL,ioos:station:DISL:CATA:1,2008-12-03T01:30:00Z,30.3085,-88.1395,2.228,9.07,1111122 
DISL,ioos:station:DISL:CATA:1,2008-12-03T02:00:00Z,30.3085,-88.1395,2.259,9.08,1111122 
DISL,ioos:station:DISL:CATA:1,2008-12-03T02:30:00Z,30.3085,-88.1395,2.284,8.99,1111122 
DISL,ioos:station:DISL:CATA:1,2008-12-03T03:00:00Z,30.3085,-88.1395,2.312,8.9,1111122 
DISL,ioos:station:DISL:CATA:1,2008-12-03T03:30:00Z,30.3085,-88.1395,2.342,8.89,1111122 
DISL,ioos:station:DISL:CATA:1,2008-12-03T04:00:00Z,30.3085,-88.1395,2.36,8.86,1111122 
DISL,ioos:station:DISL:CATA:1,2008-12-03T04:30:00Z,30.3085,-88.1395,2.372,8.81,1111122 
DISL,ioos:station:DISL:CATA:1,2008-12-03T05:00:00Z,30.3085,-88.1395,2.389,8.8,1111122 
DISL,ioos:station:DISL:CATA:1,2008-12-03T05:30:00Z,30.3085,-88.1395,2.401,8.8,1111122 
DISL,ioos:station:DISL:CATA:1,2008-12-03T06:00:00Z,30.3085,-88.1395,2.406,8.92,1111122 
DISL,ioos:station:DISL:CATA:1,2008-12-03T06:30:00Z,30.3085,-88.1395,2.405,8.95,1111122 
DISL,ioos:station:DISL:CATA:1,2008-12-03T07:00:00Z,30.3085,-88.1395,2.406,8.95,1111122 
DISL,ioos:station:DISL:CATA:1,2008-12-03T07:30:00Z,30.3085,-88.1395,2.398,8.89,1111122 
DISL,ioos:station:DISL:CATA:1,2008-12-03T08:00:00Z,30.3085,-88.1395,2.393,8.79,1111122 
DISL,ioos:station:DISL:CATA:1,2008-12-03T08:30:00Z,30.3085,-88.1395,2.376,8.71,1111122 
DISL,ioos:station:DISL:CATA:1,2008-12-03T09:00:00Z,30.3085,-88.1395,2.365,8.77,1111122 
DISL,ioos:station:DISL:CATA:1,2008-12-03T09:30:00Z,30.3085,-88.1395,2.353,8.85,1111122 
DISL,ioos:station:DISL:CATA:1,2008-12-03T10:00:00Z,30.3085,-88.1395,2.339,8.97,1111122 
DISL,ioos:station:DISL:CATA:1,2008-12-03T10:30:00Z,30.3085,-88.1395,2.312,9.01,1111122 
DISL,ioos:station:DISL:CATA:1,2008-12-03T11:00:00Z,30.3085,-88.1395,2.291,9.02,1111122 
DISL,ioos:station:DISL:CATA:1,2008-12-03T11:30:00Z,30.3085,-88.1395,2.268,9.04,1111122 
DISL,ioos:station:DISL:CATA:1,2008-12-03T12:00:00Z,30.3085,-88.1395,2.243,9.11,1111122 
DISL,ioos:station:DISL:CATA:1,2008-12-03T12:30:00Z,30.3085,-88.1395,2.212,9.12,1111122 
DISL,ioos:station:DISL:CATA:1,2008-12-03T13:00:00Z,30.3085,-88.1395,2.185,9.06,1111122 
DISL,ioos:station:DISL:CATA:1,2008-12-03T13:30:00Z,30.3085,-88.1395,2.167,9.02,1111122 
DISL,ioos:station:DISL:CATA:1,2008-12-03T14:00:00Z,30.3085,-88.1395,2.146,9.04,1111122 
DISL,ioos:station:DISL:CATA:1,2008-12-03T14:30:00Z,30.3085,-88.1395,2.13,9.01,1111122 
DISL,ioos:station:DISL:CATA:1,2008-12-03T15:00:00Z,30.3085,-88.1395,2.105,9.0,1111122 
DISL,ioos:station:DISL:CATA:1,2008-12-03T15:30:00Z,30.3085,-88.1395,2.101,9.05,1111122 
DISL,ioos:station:DISL:CATA:1,2008-12-03T16:00:00Z,30.3085,-88.1395,2.09,9.02,1111122 
DISL,ioos:station:DISL:CATA:1,2008-12-03T16:30:00Z,30.3085,-88.1395,2.087,9.01,1111122 
DISL,ioos:station:DISL:CATA:1,2008-12-03T17:00:00Z,30.3085,-88.1395,2.092,8.96,1111122 
DISL,ioos:station:DISL:CATA:1,2008-12-03T17:30:00Z,30.3085,-88.1395,2.088,8.92,1111122 
DISL,ioos:station:DISL:CATA:1,2008-12-03T18:00:00Z,30.3085,-88.1395,2.083,9.0,1111122 
DISL,ioos:station:DISL:CATA:1,2008-12-03T18:30:00Z,30.3085,-88.1395,2.078,8.98,1111122 
DISL,ioos:station:DISL:CATA:1,2008-12-03T19:00:00Z,30.3085,-88.1395,2.08,9.03,1111122 
DISL,ioos:station:DISL:CATA:1,2008-12-03T19:30:00Z,30.3085,-88.1395,2.093,9.11,1111122 
DISL,ioos:station:DISL:CATA:1,2008-12-03T20:00:00Z,30.3085,-88.1395,2.107,9.11,1111122 
DISL,ioos:station:DISL:CATA:1,2008-12-03T20:30:00Z,30.3085,-88.1395,2.112,9.13,1111122 
DISL,ioos:station:DISL:CATA:1,2008-12-03T21:00:00Z,30.3085,-88.1395,2.125,9.2,1111122 
DISL,ioos:station:DISL:CATA:1,2008-12-03T21:30:00Z,30.3085,-88.1395,2.138,9.21,1111122 
DISL,ioos:station:DISL:CATA:1,2008-12-03T22:00:00Z,30.3085,-88.1395,2.16,9.28,1111122 
DISL,ioos:station:DISL:CATA:1,2008-12-03T22:30:00Z,30.3085,-88.1395,2.173,9.24,1111122 
DISL,ioos:station:DISL:CATA:1,2008-12-03T23:00:00Z,30.3085,-88.1395,2.19,9.29,1111122 
DISL,ioos:station:DISL:CATA:1,2008-12-03T23:30:00Z,30.3085,-88.1395,2.208,9.18,1111122 
DISL,ioos:station:DISL:CATA:1,2008-12-04T00:00:00Z,30.3085,-88.1395,2.238,9.14,1111122 
DISL,ioos:station:DISL:CATA:1,2008-12-04T00:30:00Z,30.3085,-88.1395,2.255,9.06,1111122 
DISL,ioos:station:DISL:CATA:1,2008-12-04T01:00:00Z,30.3085,-88.1395,2.288,9.18,1111122 
DISL,ioos:station:DISL:CATA:1,2008-12-04T01:30:00Z,30.3085,-88.1395,2.317,9.09,1111122 
DISL,ioos:station:DISL:CATA:1,2008-12-04T02:00:00Z,30.3085,-88.1395,2.339,9.1,1111122 
DISL,ioos:station:DISL:CATA:1,2008-12-04T02:30:00Z,30.3085,-88.1395,2.363,9.1,1111122 
DISL,ioos:station:DISL:CATA:1,2008-12-04T03:00:00Z,30.3085,-88.1395,2.386,9.08,1111122 
DISL,ioos:station:DISL:CATA:1,2008-12-04T03:30:00Z,30.3085,-88.1395,2.406,9.1,1111122 
DISL,ioos:station:DISL:CATA:1,2008-12-04T04:00:00Z,30.3085,-88.1395,2.427,9.16,1111122 
DISL,ioos:station:DISL:CATA:1,2008-12-04T04:30:00Z,30.3085,-88.1395,2.442,9.17,1111122 
DISL,ioos:station:DISL:CATA:1,2008-12-04T05:00:00Z,30.3085,-88.1395,2.464,9.21,1111122 
DISL,ioos:station:DISL:CATA:1,2008-12-04T05:30:00Z,30.3085,-88.1395,2.474,9.2,1111122 
DISL,ioos:station:DISL:CATA:1,2008-12-04T06:00:00Z,30.3085,-88.1395,2.481,9.12,1111122 
DISL,ioos:station:DISL:CATA:1,2008-12-04T06:30:00Z,30.3085,-88.1395,2.489,9.12,1111122 
DISL,ioos:station:DISL:CATA:1,2008-12-04T07:00:00Z,30.3085,-88.1395,2.485,9.14,1111122 
DISL,ioos:station:DISL:CATA:1,2008-12-04T07:30:00Z,30.3085,-88.1395,2.479,9.16,1111122 
DISL,ioos:station:DISL:CATA:1,2008-12-04T08:00:00Z,30.3085,-88.1395,2.495,9.1,1111122 
DISL,ioos:station:DISL:CATA:1,2008-12-04T08:30:00Z,30.3085,-88.1395,2.497,9.02,1111122 
DISL,ioos:station:DISL:CATA:1,2008-12-04T09:00:00Z,30.3085,-88.1395,2.5,8.97,1111122 
DISL,ioos:station:DISL:CATA:1,2008-12-04T09:30:00Z,30.3085,-88.1395,2.499,8.92,1111122 
DISL,ioos:station:DISL:CATA:1,2008-12-04T10:00:00Z,30.3085,-88.1395,2.487,8.94,1111122 
DISL,ioos:station:DISL:CATA:1,2008-12-04T10:30:00Z,30.3085,-88.1395,2.48,8.92,1111122 
DISL,ioos:station:DISL:CATA:1,2008-12-04T11:00:00Z,30.3085,-88.1395,2.454,8.93,1111122 
DISL,ioos:station:DISL:CATA:1,2008-12-04T11:30:00Z,30.3085,-88.1395,2.444,8.93,1111122 
DISL,ioos:station:DISL:CATA:1,2008-12-04T12:00:00Z,30.3085,-88.1395,2.417,8.83,1111122 
DISL,ioos:station:DISL:CATA:1,2008-12-04T12:30:00Z,30.3085,-88.1395,2.404,8.74,1111122 
DISL,ioos:station:DISL:CATA:1,2008-12-04T13:00:00Z,30.3085,-88.1395,2.382,8.72,1111122 
DISL,ioos:station:DISL:CATA:1,2008-12-04T13:30:00Z,30.3085,-88.1395,2.365,8.81,1111122 
DISL,ioos:station:DISL:CATA:1,2008-12-04T14:00:00Z,30.3085,-88.1395,2.335,8.75,1111122 
DISL,ioos:station:DISL:CATA:1,2008-12-04T14:30:00Z,30.3085,-88.1395,2.315,8.74,1111122 
DISL,ioos:station:DISL:CATA:1,2008-12-04T15:00:00Z,30.3085,-88.1395,2.302,8.7,1111122 
DISL,ioos:station:DISL:CATA:1,2008-12-04T15:30:00Z,30.3085,-88.1395,2.277,8.74,1111122 
DISL,ioos:station:DISL:CATA:1,2008-12-04T16:00:00Z,30.3085,-88.1395,2.258,8.73,1111122 
DISL,ioos:station:DISL:CATA:1,2008-12-04T16:30:00Z,30.3085,-88.1395,2.269,8.78,1111122 
DISL,ioos:station:DISL:CATA:1,2008-12-04T17:00:00Z,30.3085,-88.1395,2.234,8.78,1111122 
DISL,ioos:station:DISL:CATA:1,2008-12-04T17:30:00Z,30.3085,-88.1395,2.179,8.91,1111122 
DISL,ioos:station:DISL:CATA:1,2008-12-04T18:00:00Z,30.3085,-88.1395,2.154,9.0,1111122 
DISL,ioos:station:DISL:CATA:1,2008-12-04T18:30:00Z,30.3085,-88.1395,2.164,9.06,1111122 
DISL,ioos:station:DISL:CATA:1,2008-12-04T19:00:00Z,30.3085,-88.1395,2.169,8.98,1111122 
DISL,ioos:station:DISL:CATA:1,2008-12-04T19:30:00Z,30.3085,-88.1395,2.156,9.03,1111122 
DISL,ioos:station:DISL:CATA:1,2008-12-04T20:00:00Z,30.3085,-88.1395,2.166,9.03,1111122 
DISL,ioos:station:DISL:CATA:1,2008-12-04T20:30:00Z,30.3085,-88.1395,2.178,9.06,1111122 
DISL,ioos:station:DISL:CATA:1,2008-12-04T21:00:00Z,30.3085,-88.1395,2.191,9.08,1111122 
DISL,ioos:station:DISL:CATA:1,2008-12-04T21:30:00Z,30.3085,-88.1395,2.217,9.07,1111122 
DISL,ioos:station:DISL:CATA:1,2008-12-04T22:00:00Z,30.3085,-88.1395,2.244,9.09,1111122 
DISL,ioos:station:DISL:CATA:1,2008-12-04T22:30:00Z,30.3085,-88.1395,2.249,9.05,1111122 
DISL,ioos:station:DISL:CATA:1,2008-12-04T23:00:00Z,30.3085,-88.1395,2.259,8.98,1111122 
DISL,ioos:station:DISL:CATA:1,2008-12-04T23:30:00Z,30.3085,-88.1395,2.276,8.98,1111122 
DISL,ioos:station:DISL:CATA:1,2008-12-05T00:00:00Z,30.3085,-88.1395,2.303,8.99,1111122 
DISL,ioos:station:DISL:CATA:1,2008-12-05T00:30:00Z,30.3085,-88.1395,2.339,9.0,1111122 
DISL,ioos:station:DISL:CATA:1,2008-12-05T01:00:00Z,30.3085,-88.1395,2.328,8.92,1111122 
DISL,ioos:station:DISL:CATA:1,2008-12-05T01:30:00Z,30.3085,-88.1395,2.306,8.99,1111122 
DISL,ioos:station:DISL:CATA:1,2008-12-05T02:00:00Z,30.3085,-88.1395,2.284,8.82,1111122 
DISL,ioos:station:DISL:CATA:1,2008-12-05T02:30:00Z,30.3085,-88.1395,2.27,8.85,1111122 
DISL,ioos:station:DISL:CATA:1,2008-12-05T03:00:00Z,30.3085,-88.1395,2.277,8.85,1111122 
DISL,ioos:station:DISL:CATA:1,2008-12-05T03:30:00Z,30.3085,-88.1395,2.268,8.81,1111122 
DISL,ioos:station:DISL:CATA:1,2008-12-05T04:00:00Z,30.3085,-88.1395,2.247,8.88,1111122 
DISL,ioos:station:DISL:CATA:1,2008-12-05T04:30:00Z,30.3085,-88.1395,2.242,8.87,1111122 
DISL,ioos:station:DISL:CATA:1,2008-12-05T05:00:00Z,30.3085,-88.1395,2.286,8.81,1111122 
DISL,ioos:station:DISL:CATA:1,2008-12-05T05:30:00Z,30.3085,-88.1395,2.291,8.85,1111122 
DISL,ioos:station:DISL:CATA:1,2008-12-05T06:00:00Z,30.3085,-88.1395,2.303,8.79,1111122 
DISL,ioos:station:DISL:CATA:1,2008-12-05T06:30:00Z,30.3085,-88.1395,2.308,8.71,1111122 
DISL,ioos:station:DISL:CATA:1,2008-12-05T07:00:00Z,30.3085,-88.1395,2.297,8.72,1111122 
DISL,ioos:station:DISL:CATA:1,2008-12-05T07:30:00Z,30.3085,-88.1395,2.326,8.7,1111122 
DISL,ioos:station:DISL:CATA:1,2008-12-05T08:00:00Z,30.3085,-88.1395,2.295,8.66,1111122 
DISL,ioos:station:DISL:CATA:1,2008-12-05T08:30:00Z,30.3085,-88.1395,2.324,8.57,1111122 
DISL,ioos:station:DISL:CATA:1,2008-12-05T09:00:00Z,30.3085,-88.1395,2.329,8.67,1111122 
DISL,ioos:station:DISL:CATA:1,2008-12-05T09:30:00Z,30.3085,-88.1395,2.317,8.68,1111122 
DISL,ioos:station:DISL:CATA:1,2008-12-05T10:00:00Z,30.3085,-88.1395,2.3,8.72,1111122 
DISL,ioos:station:DISL:CATA:1,2008-12-05T10:30:00Z,30.3085,-88.1395,2.278,8.68,1111122 
DISL,ioos:station:DISL:CATA:1,2008-12-05T11:00:00Z,30.3085,-88.1395,2.298,8.63,1111122 
DISL,ioos:station:DISL:CATA:1,2008-12-05T11:30:00Z,30.3085,-88.1395,2.271,8.67,1111122 
DISL,ioos:station:DISL:CATA:1,2008-12-05T12:00:00Z,30.3085,-88.1395,2.268,8.68,1111122 
DISL,ioos:station:DISL:CATA:1,2008-12-05T12:30:00Z,30.3085,-88.1395,2.267,8.66,1111122 
DISL,ioos:station:DISL:CATA:1,2008-12-05T13:00:00Z,30.3085,-88.1395,2.254,8.73,1111122 
DISL,ioos:station:DISL:CATA:1,2008-12-05T13:30:00Z,30.3085,-88.1395,2.227,8.71,1111122 
DISL,ioos:station:DISL:CATA:1,2008-12-05T14:00:00Z,30.3085,-88.1395,2.189,8.72,1111122 
DISL,ioos:station:DISL:CATA:1,2008-12-05T14:30:00Z,30.3085,-88.1395,2.231,8.74,1111122 
DISL,ioos:station:DISL:CATA:1,2008-12-05T15:00:00Z,30.3085,-88.1395,2.195,8.78,1111122 
DISL,ioos:station:DISL:CATA:1,2008-12-05T15:30:00Z,30.3085,-88.1395,2.168,8.72,1111122 
DISL,ioos:station:DISL:CATA:1,2008-12-05T16:00:00Z,30.3085,-88.1395,2.146,8.79,1111122 
DISL,ioos:station:DISL:CATA:1,2008-12-05T16:30:00Z,30.3085,-88.1395,2.162,8.85,1111122 
DISL,ioos:station:DISL:CATA:1,2008-12-05T17:00:00Z,30.3085,-88.1395,2.156,8.81,1111122 
DISL,ioos:station:DISL:CATA:1,2008-12-05T17:30:00Z,30.3085,-88.1395,2.15,8.85,1111122 
DISL,ioos:station:DISL:CATA:1,2008-12-05T18:00:00Z,30.3085,-88.1395,2.167,8.89,1111122 
DISL,ioos:station:DISL:CATA:1,2008-12-05T18:30:00Z,30.3085,-88.1395,2.175,9.01,1111122 
DISL,ioos:station:DISL:CATA:1,2008-12-05T19:00:00Z,30.3085,-88.1395,2.185,8.96,1111122 
DISL,ioos:station:DISL:CATA:1,2008-12-05T19:30:00Z,30.3085,-88.1395,2.208,9.36,1111122 
DISL,ioos:station:DISL:CATA:1,2008-12-05T20:00:00Z,30.3085,-88.1395,2.234,9.41,1111122 
DISL,ioos:station:DISL:CATA:1,2008-12-05T20:30:00Z,30.3085,-88.1395,2.231,9.25,1111122 
DISL,ioos:station:DISL:CATA:1,2008-12-05T21:00:00Z,30.3085,-88.1395,2.234,9.14,1111122 
DISL,ioos:station:DISL:CATA:1,2008-12-05T21:30:00Z,30.3085,-88.1395,2.25,9.22,1111122 
DISL,ioos:station:DISL:CATA:1,2008-12-05T22:00:00Z,30.3085,-88.1395,2.285,9.3,1111122 
DISL,ioos:station:DISL:CATA:1,2008-12-05T22:30:00Z,30.3085,-88.1395,2.277,9.14,1111122 
DISL,ioos:station:DISL:CATA:1,2008-12-05T23:00:00Z,30.3085,-88.1395,2.286,9.04,1111122 
DISL,ioos:station:DISL:CATA:1,2008-12-05T23:30:00Z,30.3085,-88.1395,2.279,9.07,1111122 
DISL,ioos:station:DISL:CATA:1,2008-12-06T00:00:00Z,30.3085,-88.1395,2.281,9.08,1111122 
DISL,ioos:station:DISL:CATA:1,2008-12-06T00:30:00Z,30.3085,-88.1395,2.3,9.11,1111122 
DISL,ioos:station:DISL:CATA:1,2008-12-06T01:00:00Z,30.3085,-88.1395,2.296,8.92,1111122 
DISL,ioos:station:DISL:CATA:1,2008-12-06T01:30:00Z,30.3085,-88.1395,2.304,8.91,1111122 
DISL,ioos:station:DISL:CATA:1,2008-12-06T02:00:00Z,30.3085,-88.1395,2.317,8.89,1111122 
DISL,ioos:station:DISL:CATA:1,2008-12-06T02:30:00Z,30.3085,-88.1395,2.307,8.93,1111122 
DISL,ioos:station:DISL:CATA:1,2008-12-06T03:00:00Z,30.3085,-88.1395,2.291,9.04,1111122 
DISL,ioos:station:DISL:CATA:1,2008-12-06T03:30:00Z,30.3085,-88.1395,2.27,9.04,1111122 
DISL,ioos:station:DISL:CATA:1,2008-12-06T04:00:00Z,30.3085,-88.1395,2.296,9.03,1111122 
DISL,ioos:station:DISL:CATA:1,2008-12-06T04:30:00Z,30.3085,-88.1395,2.321,9.03,1111122 
DISL,ioos:station:DISL:CATA:1,2008-12-06T05:00:00Z,30.3085,-88.1395,2.321,8.99,1111122 
DISL,ioos:station:DISL:CATA:1,2008-12-06T05:30:00Z,30.3085,-88.1395,2.348,9.12,1111122 
DISL,ioos:station:DISL:CATA:1,2008-12-06T06:00:00Z,30.3085,-88.1395,2.369,9.16,1111122 
DISL,ioos:station:DISL:CATA:1,2008-12-06T06:30:00Z,30.3085,-88.1395,2.369,9.21,1111122 
DISL,ioos:station:DISL:CATA:1,2008-12-06T07:00:00Z,30.3085,-88.1395,2.352,9.23,1111122 
DISL,ioos:station:DISL:CATA:1,2008-12-06T07:30:00Z,30.3085,-88.1395,2.355,9.22,1111122 
DISL,ioos:station:DISL:CATA:1,2008-12-06T08:00:00Z,30.3085,-88.1395,2.347,9.18,1111122 
DISL,ioos:station:DISL:CATA:1,2008-12-06T08:30:00Z,30.3085,-88.1395,2.308,9.14,1111122 
DISL,ioos:station:DISL:CATA:1,2008-12-06T09:00:00Z,30.3085,-88.1395,2.289,9.23,1111122 
DISL,ioos:station:DISL:CATA:1,2008-12-06T09:30:00Z,30.3085,-88.1395,2.29,9.25,1111122 
DISL,ioos:station:DISL:CATA:1,2008-12-06T10:00:00Z,30.3085,-88.1395,2.298,9.25,1111122 
DISL,ioos:station:DISL:CATA:1,2008-12-06T10:30:00Z,30.3085,-88.1395,2.298,9.19,1111122 
DISL,ioos:station:DISL:CATA:1,2008-12-06T11:00:00Z,30.3085,-88.1395,2.31,9.11,1111122 
DISL,ioos:station:DISL:CATA:1,2008-12-06T11:30:00Z,30.3085,-88.1395,2.32,9.1,1111122 
DISL,ioos:station:DISL:CATA:1,2008-12-06T12:00:00Z,30.3085,-88.1395,2.334,9.05,1111122 
DISL,ioos:station:DISL:CATA:1,2008-12-06T12:30:00Z,30.3085,-88.1395,2.32,9.03,1111122 
DISL,ioos:station:DISL:CATA:1,2008-12-06T13:00:00Z,30.3085,-88.1395,2.315,9.06,1111122 
DISL,ioos:station:DISL:CATA:1,2008-12-06T13:30:00Z,30.3085,-88.1395,2.327,9.14,1111122 
DISL,ioos:station:DISL:CATA:1,2008-12-06T14:00:00Z,30.3085,-88.1395,2.337,9.19,1111122 
DISL,ioos:station:DISL:CATA:1,2008-12-06T14:30:00Z,30.3085,-88.1395,2.314,9.09,1111122 
DISL,ioos:station:DISL:CATA:1,2008-12-06T15:00:00Z,30.3085,-88.1395,2.322,9.24,1111122 
DISL,ioos:station:DISL:CATA:1,2008-12-06T15:30:00Z,30.3085,-88.1395,2.327,9.06,1111122 